Wetbulb
48.34 49.01 49.56 49.86 50.47 51.86 52.08 51.74 51.93 50.31 49.33 47.52 47.68 47.07 46.07 46.02 45.91 45.84 45.80 44.81 44.05 44.14 43.37 42.47 41.89 42.79 41.64 41.08 39.42 38.74 37.92 38.31 37.15 40.09 37.96 34.18 30.18 30.78 30.41 32.64 34.07 36.08 37.56
46.18 47.08 47.22 47.51 47.78 48.43 48.34 48.19 47.61 48.56 47.50 47.28 46.79 46.52 45.98 45.31 45.34 44.78 44.14 43.67 43.00 41.31 41.57 41.23 40.77 41.27 40.32 40.91 39.37 38.56 38.07 38.57 37.51 36.59 38.97 29.24 29.20 29.67 30.23 30.03 31.71 33.54 34.35
44.05 44.69 44.72 44.85 45.55 45.82 45.80 45.41 44.61 44.61 44.86 44.93 42.72 43.76 43.07 42.47 42.69 42.67 42.86 42.17 41.68 41.88 41.48 40.09 40.70 40.00 39.34 40.11 39.89 39.06 38.41 37.65 37.09 36.10 36.43 28.62 28.56 28.27 28.21 29.23 30.29 31.64 32.76
41.33 41.31 41.00 41.32 42.02 42.71 42.92 42.96 42.90 43.06 43.21 43.54 43.19 42.32 41.69 41.78 40.29 40.84 38.86 40.13 40.66 40.74 40.78 40.67 40.93 39.93 39.12 39.24 38.12 37.66 37.23 35.92 35.18 34.59 34.50 29.97 26.94 27.30 27.85 25.93 25.94 28.74 29.59
38.63 38.04 37.44 38.33 38.62 39.30 39.41 40.10 40.62 40.71 40.89 40.57 39.74 40.55 39.95 38.82 38.23 39.62 39.33 39.22 38.56 38.69 38.96 37.50 38.65 38.09 36.90 38.65 36.52 37.45 35.93 34.92 34.62 32.76 32.49 28.99 27.11 24.52 24.72 26.49 26.07 26.94 28.20
36.11 35.15 35.50 35.58 35.65 35.98 36.46 36.89 37.90 38.23 38.34 38.34 38.18 37.99 37.75 37.29 36.83 37.15 37.46 38.03 37.45 36.91 37.03 38.01 37.62 34.76 35.34 36.98 38.25 38.93 38.54 34.81 33.72 33.43 33.19 32.19 31.23 28.73 27.42 26.78 26.37 25.48 23.14
34.27 33.25 32.93 32.94 33.02 33.51 34.16 34.67 35.20 36.21 36.86 36.81 36.81 36.85 36.76 37.29 36.08 36.50 36.54 36.55 36.36 36.72 36.63 36.29 35.74 35.93 34.47 35.50 36.14 37.08 37.33 38.35 38.89 35.29 32.72 33.11 32.93 31.76 29.14 27.32 27.03 27.47 26.42
31.90 31.41 31.07 30.86 30.66 31.46 32.35 33.02 34.13 34.98 34.58 34.44 34.67 34.72 34.71 34.87 34.97 35.28 35.33 35.55 35.86 35.32 35.10 35.37 35.40 35.30 35.85 34.59 34.23 33.18 33.51 33.75 34.12 34.87 34.97 34.17 34.73 35.02 31.89 30.28 28.90 28.67 28.63
29.30 29.19 29.23 29.16 28.08 29.26 29.63 31.04 31.74 31.01 32.24 32.70 33.02 33.95 33.78 33.71 34.21 34.22 34.21 34.46 34.25 34.01 34.52 35.03 34.72 33.78 34.10 34.28 32.69 31.71 31.96 32.65 34.20 35.92 36.90 37.17 36.87 36.49 33.26 31.55 28.84 26.41 24.11
25.81 26.21 27.14 27.39 26.14 27.08 28.82 28.97 30.36 31.45 32.16 32.64 33.70 33.97 32.67 32.33 32.98 33.18 33.49 34.04 32.84 32.90 33.85 33.77 32.41 32.16 33.29 33.93 32.12 31.61 30.22 31.47 31.95 32.31 32.35 34.32 35.61 34.32 34.71 31.76 30.16 26.70 25.87
22.84 24.14 24.68 24.55 24.36 26.80 26.82 28.29 30.53 32.41 31.34 31.88 32.35 33.37 32.62 31.87 31.83 32.52 33.17 32.52 31.77 31.66 31.88 31.80 32.38 33.31 33.47 33.95 34.28 32.68 31.77 32.97 32.48 31.98 31.81 31.85 31.77 31.60 31.96 31.85 31.14 29.07 27.11
18.98 20.03 20.02 21.67 23.83 25.94 24.54 26.29 27.80 30.36 31.57 30.93 31.44 32.02 32.91 32.60 31.23 32.46 32.58 32.63 32.72 31.82 31.30 31.55 31.84 33.01 33.40 33.76 33.15 33.64 34.07 34.19 32.58 31.45 31.28 30.58 30.25 30.59 31.07 30.52 29.61 29.71 30.82
13.09 14.64 17.62 19.90 22.70 23.97 24.51 24.85 26.31 28.14 29.42 29.71 29.68 30.01 31.22 32.75 33.36 32.65 31.31 31.37 30.91 29.38 29.81 29.82 31.06 31.67 32.50 33.13 31.87 32.00 31.16 32.06 30.85 30.24 29.68 29.36 29.82 30.51 31.50 30.77 29.94 29.08 26.58
11.65 14.79 18.09 17.97 18.40 21.52 23.85 26.04 25.36 25.60 26.09 26.85 26.73 27.44 28.79 29.78 32.41 33.38 32.69 32.38 30.60 31.08 30.87 31.16 30.94 31.40 31.57 31.76 30.31 29.86 31.23 31.54 30.62 30.74 30.26 30.33 30.61 30.01 29.10 28.52 25.95 25.20 24.62
11.99 14.75 16.38 17.26 17.65 18.92 21.18 22.83 25.24 27.05 27.19 26.56 27.49 27.85 27.51 28.08 30.71 33.24 32.85 32.66 32.54 31.84 31.36 31.51 30.65 30.06 28.91 28.38 28.54 28.85 29.86 29.60 29.12 30.68 30.52 30.31 29.04 28.59 28.13 28.34 26.94 25.06 23.29
10.97 12.99 13.47 14.26 16.11 17.38 18.56 20.45 24.99 27.25 28.39 29.20 29.92 29.79 30.94 32.84 33.30 33.16 33.21 33.32 33.60 33.61 31.42 30.40 29.20 28.90 27.97 27.87 27.48 27.61 28.62 28.33 28.98 29.64 29.94 29.50 28.16 27.54 27.41 27.35 26.96 24.96 23.29
6.68 9.41 11.54 12.43 14.11 14.96 15.91 17.11 18.62 23.24 26.97 28.49 29.59 30.43 31.17 30.61 30.89 31.64 31.89 31.71 32.49 33.06 31.28 30.39 28.63 28.32 28.43 28.28 27.76 27.42 26.88 28.51 30.22 29.07 29.03 29.60 28.48 27.54 26.75 26.12 25.33 24.98 24.04
4.40 5.39 8.73 11.14 12.11 13.15 14.35 15.62 17.27 18.26 20.22 23.78 28.14 28.99 28.63 29.09 30.14 30.76 30.27 30.25 29.86 31.33 31.01 29.53 28.69 28.79 28.53 27.70 27.50 27.23 28.38 28.63 27.97 27.76 28.10 28.17 28.05 26.82 25.46 24.90 24.69 23.66 23.63
7.31 9.37 8.88 10.51 11.49 11.41 12.73 15.74 18.10 19.89 21.48 23.21 25.42 26.55 26.18 26.71 27.97 25.17 23.56 21.76 21.59 23.82 22.41 24.38 24.50 25.19 26.06 27.17 27.03 27.48 28.14 27.57 28.29 27.89 27.55 27.64 27.78 27.13 25.90 25.60 25.01 23.38 23.12
7.55 5.98 5.93 9.43 10.65 11.86 13.79 14.79 16.55 17.09 18.06 20.25 22.74 19.99 21.25 22.66 20.22 17.30 16.34 14.56 14.79 14.87 15.90 17.00 16.97 17.38 17.76 18.90 20.91 22.98 26.04 27.68 27.78 27.73 27.83 28.02 28.17 27.90 26.17 25.72 24.96 23.91 22.73
7.14 7.38 4.35 8.69 9.68 10.67 11.45 12.12 12.91 13.55 14.88 15.57 16.31 15.75 18.92 14.10 12.92 11.47 10.97 10.03 9.19 9.74 10.18 12.47 12.48 12.49 12.74 13.37 15.07 17.65 17.99 18.71 17.74 19.19 20.74 22.68 25.67 26.10 26.64 26.51 26.28 25.71 24.96
5.75 6.00 6.78 6.51 7.96 8.97 9.19 10.49 10.77 10.71 11.29 11.04 11.80 12.61 14.39 11.11 10.29 9.46 8.92 8.19 7.93 8.39 8.76 9.22 10.15 9.70 9.03 9.35 9.96 12.08 12.79 12.75 13.28 13.96 15.77 16.95 18.70 21.14 22.24 25.03 25.01 24.83 24.53
5.20 5.53 6.45 6.49 6.47 6.09 8.30 8.63 8.69 8.64 8.73 9.00 9.09 9.06 8.97 8.55 8.17 7.83 7.67 7.54 7.57 7.22 7.14 7.25 7.11 6.83 7.64 8.41 9.12 9.46 9.85 9.39 9.99 10.71 11.54 13.59 15.17 16.52 18.13 19.33 19.59 20.80 21.46
3.69 4.17 4.16 4.59 4.58 4.86 5.61 6.29 6.66 5.75 6.12 6.84 7.06 7.18 6.81 6.99 6.83 6.48 6.42 6.79 6.75 6.82 6.16 5.54 4.95 4.17 4.46 5.13 6.98 8.36 9.39 11.17 9.96 9.30 8.91 9.91 11.28 12.20 13.59 14.67 15.17 14.85 15.84
2.05 2.59 2.65 2.74 2.62 2.87 3.40 3.97 4.57 4.70 4.83 5.28 5.19 5.40 5.63 5.94 5.81 6.02 5.92 5.60 5.03 5.26 5.01 4.39 3.98 3.62 3.26 3.06 3.65 5.85 7.46 9.44 11.23 8.19 8.89 8.75 7.94 8.10 8.65 9.87 9.81 11.05 10.69
0.44 0.63 1.05 1.34 1.48 1.66 1.88 2.01 2.44 2.84 2.91 3.78 4.13 4.27 4.38 4.34 4.73 4.88 4.72 4.19 3.88 3.64 3.83 4.42 3.74 2.68 2.33 3.14 3.36 5.96 7.78 9.06 9.61 6.73 7.48 7.07 5.98 5.72 5.94 4.92 4.43 5.80 5.31
MSLP
1019.70 1019.62 1019.59 1019.62 1019.68 1019.72 1019.78 1019.76 1019.93 1020.02 1020.14 1020.12 1020.06 1020.23 1020.44 1020.61 1020.82 1020.83 1021.08 1021.22 1021.50 1021.69 1021.86 1022.08 1022.20 1022.41 1022.41 1022.65 1022.66 1022.77 1022.95 1023.14 1022.52 1021.50 1021.64 1021.77 1022.36 1022.57 1022.91 1023.10 1023.36 1023.43 1023.56
1020.25 1020.15 1020.08 1020.12 1020.16 1020.12 1020.23 1020.41 1020.27 1020.18 1020.28 1020.43 1020.46 1020.50 1020.56 1020.75 1020.89 1021.01 1021.18 1021.16 1021.34 1021.45 1021.50 1021.74 1021.81 1021.92 1021.94 1022.01 1022.00 1021.91 1022.09 1022.16 1022.11 1021.25 1021.34 1021.80 1022.22 1022.33 1022.39 1022.61 1022.70 1022.79 1022.86
1020.78 1020.67 1020.64 1020.61 1020.62 1020.64 1020.53 1020.80 1020.75 1020.51 1020.57 1020.63 1020.70 1020.50 1020.51 1020.65 1020.76 1020.82 1020.90 1020.96 1021.06 1021.03 1021.05 1021.10 1021.00 1021.15 1021.08 1021.18 1021.28 1021.26 1021.21 1021.22 1021.18 1021.06 1021.00 1021.61 1021.85 1021.99 1022.30 1022.53 1022.51 1022.58 1022.58
1021.38 1021.27 1021.31 1021.35 1021.27 1021.22 1021.23 1020.94 1020.88 1020.86 1020.94 1020.90 1020.74 1020.50 1020.38 1020.44 1020.62 1020.71 1020.72 1020.66 1020.52 1020.33 1020.17 1020.24 1020.36 1020.62 1020.53 1020.47 1020.53 1020.62 1020.68 1020.70 1020.74 1020.73 1020.62 1020.96 1021.41 1021.53 1021.71 1021.87 1021.91 1021.88 1021.89
1022.02 1022.02 1022.21 1022.22 1022.04 1021.83 1021.51 1021.45 1021.58 1021.49 1021.27 1021.10 1020.94 1020.76 1020.79 1020.76 1020.65 1020.69 1020.84 1020.82 1020.73 1020.45 1020.42 1020.16 1019.95 1019.79 1019.83 1020.06 1020.24 1019.91 1020.00 1019.95 1019.89 1019.88 1019.78 1020.09 1020.31 1020.70 1020.52 1020.63 1020.94 1021.15 1021.18
1022.90 1023.03 1023.12 1022.83 1022.68 1022.66 1022.55 1022.22 1021.87 1021.54 1021.22 1021.08 1020.97 1020.80 1020.59 1020.52 1020.56 1020.62 1020.63 1020.33 1020.29 1020.22 1019.90 1019.65 1019.46 1019.39 1019.38 1019.38 1019.37 1019.03 1019.12 1019.21 1018.91 1018.80 1018.51 1018.41 1018.23 1018.60 1019.23 1019.69 1020.12 1020.53 1020.77
1023.75 1023.86 1023.84 1023.72 1023.55 1023.29 1022.88 1022.40 1022.01 1021.70 1021.65 1021.43 1021.14 1021.14 1020.75 1020.62 1020.50 1020.45 1020.35 1020.11 1020.04 1019.80 1019.50 1019.33 1019.15 1019.10 1019.01 1018.75 1018.69 1018.32 1018.05 1018.06 1017.84 1017.85 1017.47 1017.01 1017.02 1017.41 1018.21 1018.76 1018.91 1019.07 1018.74
1024.73 1024.82 1024.73 1024.47 1024.14 1023.69 1023.11 1022.64 1022.32 1022.14 1022.06 1021.88 1021.50 1021.33 1021.00 1020.60 1020.37 1020.23 1020.06 1019.74 1019.59 1019.44 1019.24 1018.96 1018.70 1018.50 1018.41 1018.24 1018.08 1017.76 1017.49 1017.26 1017.04 1016.91 1016.37 1016.04 1016.25 1016.46 1016.91 1017.18 1017.64 1018.15 1018.85
1025.32 1025.06 1024.82 1024.54 1024.25 1023.86 1023.39 1023.10 1022.81 1022.65 1022.22 1021.85 1021.57 1021.34 1020.95 1020.48 1020.29 1020.14 1019.84 1019.54 1019.17 1018.85 1018.66 1018.51 1018.34 1018.06 1017.88 1017.72 1017.53 1017.17 1016.87 1016.47 1016.30 1016.17 1015.74 1015.37 1015.47 1015.71 1016.07 1016.76 1017.10 1017.78 1018.23
1025.68 1025.57 1025.31 1025.10 1024.77 1024.22 1024.04 1023.58 1023.05 1022.69 1022.18 1021.76 1021.40 1021.03 1020.80 1020.53 1020.21 1020.02 1019.79 1019.50 1019.08 1018.69 1018.43 1018.14 1018.01 1017.77 1017.55 1017.39 1017.12 1016.71 1016.20 1015.91 1015.86 1015.57 1015.28 1014.92 1014.92 1014.98 1015.39 1015.78 1016.16 1016.64 1017.20
1026.16 1025.92 1025.60 1025.25 1024.97 1024.54 1024.20 1023.53 1022.96 1022.54 1022.23 1021.66 1021.15 1020.79 1020.56 1020.26 1020.05 1019.98 1019.79 1019.42 1018.99 1018.57 1018.10 1017.71 1017.51 1017.33 1017.09 1016.83 1016.53 1016.16 1015.85 1015.75 1015.44 1015.29 1014.97 1014.66 1014.62 1014.72 1014.97 1015.32 1015.66 1015.96 1016.20
1026.47 1026.11 1025.93 1025.49 1025.13 1024.52 1024.20 1023.56 1023.11 1022.51 1021.94 1021.44 1020.88 1020.40 1020.02 1019.93 1019.75 1019.64 1019.43 1019.07 1018.72 1018.33 1017.93 1017.50 1017.13 1016.88 1016.51 1016.17 1015.86 1015.62 1015.32 1015.01 1014.82 1014.76 1014.59 1014.38 1014.41 1014.46 1014.62 1014.93 1015.39 1015.78 1015.91
1026.94 1026.49 1026.08 1025.71 1025.20 1024.65 1024.24 1023.73 1023.08 1022.35 1021.71 1021.18 1020.74 1020.26 1019.86 1019.67 1019.40 1019.10 1018.92 1018.74 1018.48 1018.03 1017.83 1017.50 1016.98 1016.45 1015.95 1015.57 1015.50 1015.23 1015.02 1014.72 1014.59 1014.36 1014.14 1014.02 1014.07 1014.23 1014.39 1014.64 1015.06 1015.54 1016.18
1027.24 1026.78 1026.22 1025.71 1025.32 1024.73 1024.11 1023.37 1022.94 1022.37 1021.68 1021.22 1020.75 1020.23 1019.78 1019.37 1019.11 1018.88 1018.47 1017.96 1017.76 1017.47 1017.18 1016.81 1016.44 1016.05 1015.60 1015.26 1015.19 1014.98 1014.75 1014.48 1014.23 1013.82 1013.71 1013.83 1013.99 1014.06 1014.18 1014.47 1014.83 1015.32 1015.82
1027.72 1027.08 1026.58 1026.13 1025.61 1024.83 1024.08 1023.49 1022.62 1022.14 1021.80 1021.22 1020.73 1020.27 1019.82 1019.21 1018.69 1018.43 1018.08 1017.48 1017.10 1016.96 1016.66 1016.26 1015.95 1015.52 1015.19 1014.95 1014.80 1014.64 1014.42 1014.20 1013.95 1013.60 1013.47 1013.39 1013.58 1013.77 1013.82 1014.08 1014.39 1014.85 1015.22
1028.19 1027.59 1027.06 1026.52 1025.73 1025.04 1024.16 1023.02 1022.49 1021.84 1021.38 1020.82 1020.27 1020.10 1019.41 1018.80 1018.25 1017.94 1017.52 1017.04 1016.65 1016.37 1016.14 1015.85 1015.54 1015.21 1014.93 1014.71 1014.49 1014.27 1013.98 1013.77 1013.52 1013.34 1013.19 1013.24 1013.29 1013.39 1013.58 1013.76 1013.97 1014.20 1014.49
1028.57 1027.87 1027.15 1026.47 1025.79 1025.20 1024.48 1023.69 1022.45 1021.24 1020.91 1020.31 1019.88 1019.47 1018.94 1018.53 1018.00 1017.56 1017.10 1016.63 1016.22 1015.86 1015.48 1015.48 1015.29 1014.99 1014.65 1014.41 1014.24 1014.02 1013.76 1013.49 1013.33 1013.17 1013.03 1012.92 1013.02 1013.11 1013.33 1013.51 1013.71 1013.87 1014.03
1028.47 1027.93 1027.24 1026.60 1026.05 1025.40 1024.76 1024.10 1023.41 1022.34 1021.08 1020.17 1019.67 1019.22 1018.77 1018.26 1017.78 1017.41 1017.00 1016.49 1015.93 1015.41 1015.33 1015.25 1015.07 1014.86 1014.58 1014.32 1014.06 1013.81 1013.56 1013.37 1013.21 1013.04 1012.89 1012.84 1012.83 1012.89 1013.06 1013.20 1013.37 1013.53 1013.68
1028.08 1027.41 1027.14 1026.63 1026.06 1025.56 1025.01 1024.18 1023.35 1022.43 1021.43 1020.41 1019.53 1019.06 1018.80 1018.39 1018.00 1017.92 1017.72 1017.59 1017.16 1016.54 1016.34 1016.00 1015.70 1015.32 1014.87 1014.48 1014.14 1013.76 1013.51 1013.32 1013.13 1012.89 1012.79 1012.71 1012.66 1012.70 1012.72 1012.83 1012.95 1013.16 1013.35
1027.59 1027.31 1027.09 1026.52 1025.90 1025.34 1024.74 1024.14 1023.35 1022.62 1021.84 1020.99 1020.10 1020.00 1019.54 1018.92 1018.74 1018.86 1018.91 1018.81 1018.48 1018.18 1017.77 1017.37 1016.88 1016.50 1016.11 1015.67 1015.10 1014.57 1013.81 1013.39 1013.20 1013.03 1012.81 1012.63 1012.54 1012.49 1012.53 1012.60 1012.70 1012.79 1012.98
1027.50 1027.17 1027.15 1026.58 1025.94 1025.42 1024.94 1024.41 1023.86 1023.26 1022.50 1021.87 1021.40 1021.27 1020.67 1020.49 1020.14 1020.10 1020.03 1019.94 1019.75 1019.40 1019.08 1018.60 1018.06 1017.61 1017.28 1016.84 1016.26 1015.59 1015.18 1014.77 1014.61 1014.31 1013.89 1013.50 1013.02 1012.67 1012.51 1012.56 1012.56 1012.61 1012.74
1027.70 1027.31 1026.82 1026.57 1026.24 1025.71 1025.32 1024.77 1024.25 1023.76 1023.24 1022.72 1022.21 1021.90 1021.52 1021.38 1021.17 1020.96 1020.77 1020.63 1020.43 1020.21 1020.02 1019.52 1019.00 1018.68 1018.39 1018.04 1017.54 1016.89 1016.46 1016.05 1015.72 1015.43 1014.93 1014.47 1014.07 1013.55 1013.14 1012.76 1012.66 1012.61 1012.64
1027.54 1027.19 1026.83 1026.47 1026.35 1026.06 1025.47 1025.10 1024.70 1024.25 1023.77 1023.34 1022.94 1022.54 1022.24 1021.95 1021.71 1021.47 1021.35 1021.19 1020.97 1020.74 1020.54 1020.20 1019.75 1019.41 1019.14 1018.75 1018.40 1018.09 1017.62 1017.26 1016.98 1016.63 1016.04 1015.34 1014.81 1014.35 1013.94 1013.60 1013.36 1013.06 1012.95
1027.69 1027.42 1027.11 1026.81 1026.62 1026.26 1025.87 1025.48 1025.16 1024.78 1024.43 1023.96 1023.54 1023.10 1022.78 1022.55 1022.27 1022.01 1021.76 1021.60 1021.37 1021.15 1020.94 1020.70 1020.42 1020.09 1019.70 1019.37 1018.97 1018.54 1018.18 1017.80 1017.65 1017.29 1016.88 1016.24 1015.68 1015.22 1014.74 1014.41 1014.24 1014.09 1013.95
1027.72 1027.53 1027.22 1027.06 1026.76 1026.44 1025.93 1025.62 1025.34 1025.01 1024.69 1024.32 1023.97 1023.65 1023.26 1022.95 1022.69 1022.37 1022.10 1021.87 1021.69 1021.47 1021.15 1020.94 1020.70 1020.35 1019.97 1019.61 1019.29 1018.89 1018.44 1017.99 1017.51 1017.52 1017.15 1016.75 1016.39 1015.94 1015.69 1015.34 1015.15 1014.97 1014.92
1027.73 1027.55 1027.26 1027.06 1026.73 1026.47 1026.12 1025.77 1025.51 1025.13 1024.74 1024.36 1024.07 1023.84 1023.45 1023.15 1022.85 1022.51 1022.21 1021.92 1021.68 1021.47 1021.13 1020.74 1020.49 1020.29 1020.00 1019.63 1019.35 1018.90 1018.40 1018.01 1017.67 1017.61 1017.41 1017.22 1016.91 1016.60 1016.41 1016.23 1016.09 1015.94 1015.89
Wind_Speed
6 5 5 4 4 4 3 2 2 1 2 2 2 2 3 3 4 4 5 5 8 8 7 9 11 10 7 7 6 7 8 8 12 10 5 6 8 10 9 12 12 14 13
6 6 6 5 5 4 4 4 4 3 3 3 3 3 3 4 4 4 5 4 7 7 7 7 9 6 10 9 7 10 10 10 9 15 7 5 8 9 9 12 11 11 13
7 7 7 7 6 6 5 4 3 3 3 3 3 4 4 4 5 5 5 5 6 7 8 9 11 9 10 8 9 9 9 9 9 10 9 1 5 4 7 7 10 11 9
8 8 9 8 7 6 5 5 5 5 5 4 4 4 4 4 4 6 5 7 8 8 9 9 9 9 10 9 9 10 9 7 7 8 9 4 4 4 6 7 8 8 9
9 10 9 8 8 8 8 7 5 4 4 4 5 5 5 5 3 6 6 8 9 10 8 6 8 8 10 10 5 8 8 9 8 8 9 4 5 5 9 6 9 8 11
8 8 8 9 9 8 7 6 5 5 5 5 5 5 6 3 7 10 10 8 7 9 10 9 7 9 10 16 18 19 15 11 12 9 9 12 13 8 6 8 9 8 8
7 7 7 7 6 7 7 7 6 7 6 6 6 6 6 6 9 11 10 7 9 10 11 9 8 6 9 10 15 19 19 22 22 12 14 13 12 10 8 11 12 11 10
5 5 5 6 5 6 6 6 6 6 6 6 6 7 7 6 10 11 10 8 9 10 11 10 11 11 10 10 10 11 12 12 13 12 14 14 11 8 12 12 13 12 4
7 7 8 8 8 8 6 7 6 6 5 6 5 6 6 7 11 12 10 7 8 9 9 10 10 10 13 16 11 11 12 11 11 21 23 20 18 16 14 7 8 8 7
8 8 7 7 7 7 8 8 7 7 7 6 5 5 6 7 11 12 10 6 8 7 8 8 11 11 17 17 11 10 12 10 8 8 8 13 16 12 19 12 8 10 8
7 6 7 7 7 6 7 7 7 6 7 7 6 5 5 5 7 11 11 7 7 7 6 6 5 15 17 18 18 9 12 12 10 9 8 7 5 6 7 9 7 9 9
8 8 8 7 6 6 8 8 8 7 7 8 6 6 5 5 6 8 10 11 11 7 8 6 6 15 18 18 14 16 18 17 6 6 7 6 6 6 6 8 9 8 6
7 6 7 8 6 7 7 8 7 7 7 8 7 8 7 5 5 9 8 11 12 8 6 11 17 16 19 13 15 16 12 5 6 7 7 7 7 5 4 4 5 5 3
7 8 8 9 10 8 7 5 6 7 7 7 8 8 8 7 6 6 5 4 8 7 9 7 9 13 14 11 7 9 6 5 6 7 6 6 5 5 7 6 6 6 5
7 7 8 7 8 9 8 8 7 7 7 8 8 8 8 10 9 13 11 7 5 7 8 6 5 5 6 6 6 7 6 6 7 6 6 5 6 6 6 5 5 5 6
6 5 6 7 7 7 8 10 12 14 16 17 19 15 10 15 18 19 18 18 18 17 6 6 7 6 6 6 7 6 6 7 6 6 6 6 6 6 6 5 5 6 7
4 5 5 5 6 7 8 9 11 11 16 16 18 19 18 18 20 19 18 18 19 16 6 6 7 7 7 6 6 6 6 6 5 6 6 6 6 5 6 5 6 6 7
4 5 4 5 6 6 7 8 8 9 11 10 12 15 17 18 16 14 14 15 8 7 5 6 6 6 6 6 6 6 5 5 5 6 6 6 5 5 4 6 6 6 6
4 3 4 5 5 7 7 7 8 9 9 10 9 9 8 13 12 9 11 6 6 7 7 6 5 5 5 5 5 5 5 5 5 5 5 5 5 5 6 5 5 7 6
3 5 5 5 6 6 6 7 8 8 9 8 7 7 8 7 5 6 6 6 6 6 6 6 6 6 6 6 6 6 6 4 4 4 4 4 4 4 5 5 5 5 6
3 4 5 5 5 5 6 6 7 7 7 7 6 7 13 5 4 5 5 5 6 6 6 6 6 6 6 6 6 6 5 5 5 5 5 6 6 4 4 4 4 4 5
3 3 3 4 5 5 6 6 6 6 6 6 6 6 12 5 4 4 4 4 5 5 5 5 5 5 6 6 7 7 6 6 6 6 5 5 5 5 6 5 4 4 4
2 3 3 3 4 5 5 5 5 6 6 6 6 6 5 5 5 5 5 5 5 5 5 5 5 5 6 6 6 6 7 7 6 7 7 6 5 5 5 4 4 4 2
2 3 3 3 3 4 4 5 5 6 6 6 6 6 5 5 5 5 5 5 5 5 5 4 4 6 6 6 5 5 5 5 5 6 7 6 5 6 5 4 4 3 2
1 2 2 2 3 4 4 4 5 5 5 5 6 6 6 6 5 5 5 5 5 5 5 4 4 6 6 7 7 8 8 8 7 5 5 6 6 6 5 4 4 3 3
2 3 3 3 3 3 4 4 5 5 5 5 6 6 6 6 6 5 5 5 5 6 7 5 6 7 8 6 7 9 9 10 2 3 4 4 4 4 4 4 5 3 4
Wind_Direction
43 46 50 41 22 6 350 356 320 296 270 230 216 230 242 244 233 219 219 203 215 225 220 224 232 235 229 228 217 218 224 224 248 262 226 197 199 209 210 211 220 219 223
36 46 49 46 35 38 27 4 8 356 334 309 268 253 256 257 261 246 238 220 226 231 230 228 236 231 235 234 223 225 225 223 240 260 253 201 212 212 210 206 213 221 224
48 48 40 32 27 25 26 2 353 340 302 289 275 265 259 262 262 248 242 234 232 234 228 223 234 223 235 235 232 236 233 233 234 252 263 158 213 178 210 213 219 225 223
53 53 47 31 20 13 2 9 1 347 316 303 293 295 292 287 264 261 248 250 244 239 234 233 240 236 241 239 236 238 241 236 235 243 252 226 196 196 207 206 215 216 219
51 46 36 26 23 22 19 8 347 331 331 332 327 322 311 295 287 284 275 276 277 279 273 257 249 244 243 248 246 245 229 231 230 230 239 212 203 189 205 194 218 213 218
52 43 27 23 20 16 8 2 7 9 10 359 345 323 311 292 285 280 272 275 274 268 271 261 247 240 247 251 254 249 243 236 240 234 240 235 234 217 190 198 202 201 225
48 36 26 16 13 7 358 3 7 9 357 359 356 336 323 312 309 300 287 276 276 272 274 276 278 262 253 257 255 256 255 254 245 243 243 237 243 212 185 201 205 213 222
48 35 19 9 3 358 360 8 8 1 356 349 345 334 320 312 311 307 300 286 276 275 276 275 273 276 268 256 261 259 253 250 248 249 245 248 245 223 201 208 209 218 223
25 14 5 2 354 351 355 353 353 342 337 331 312 304 307 304 311 311 310 294 281 280 276 272 272 270 273 275 268 265 266 263 260 257 253 250 243 220 199 194 199 193 207
9 354 347 346 340 340 338 332 328 318 299 300 293 293 290 295 311 316 312 290 290 291 289 282 270 269 280 281 274 269 272 277 276 260 260 258 248 227 206 205 196 203 205
348 339 344 345 332 326 323 318 309 292 298 291 280 279 281 287 303 309 314 302 293 293 283 283 274 278 283 284 283 267 269 280 278 271 264 251 228 209 207 203 206 208 206
349 344 335 331 328 332 323 317 309 293 283 295 292 293 282 274 271 293 307 308 302 296 294 296 287 288 287 287 285 282 287 290 276 248 260 241 230 218 203 198 201 208 225
342 338 333 331 328 328 322 323 320 322 316 313 309 306 304 298 278 271 279 306 302 295 296 294 297 298 300 280 289 289 296 279 277 247 253 251 231 228 205 184 174 151 124
344 342 339 339 337 335 324 318 317 317 316 310 308 304 301 296 284 282 271 268 267 280 273 270 273 287 291 273 280 286 280 278 280 256 248 250 234 217 211 191 187 180 190
343 340 341 333 330 325 322 315 308 297 295 302 296 290 293 288 287 286 279 282 278 278 286 265 276 283 300 290 280 279 279 278 278 275 261 239 225 224 220 197 196 182 206
334 336 333 324 327 323 321 318 312 299 295 295 296 286 279 278 300 301 301 299 291 287 275 278 282 283 285 287 288 289 289 286 276 273 260 247 235 223 227 209 205 202 214
319 316 318 315 323 324 326 322 319 319 310 302 298 296 294 299 300 299 299 298 295 291 251 272 283 286 290 290 284 285 289 296 296 276 272 253 239 232 223 220 220 216 223
300 288 305 315 313 315 315 311 306 307 310 312 308 310 305 303 304 313 327 319 293 271 253 260 273 288 293 290 288 290 293 292 289 281 273 269 247 227 220 225 217 220 228
316 321 319 305 303 304 298 297 298 302 305 307 309 316 332 328 324 4 4 351 330 335 352 337 345 329 320 321 306 298 295 296 299 293 287 278 264 248 242 235 227 219 221
327 326 326 318 318 316 316 315 316 317 315 319 326 348 348 328 357 357 6 359 357 352 349 341 351 353 350 345 338 333 321 322 326 308 298 289 280 260 255 248 233 230 219
330 328 329 314 321 321 319 318 320 319 320 324 333 339 357 352 2 2 360 1 359 354 349 345 353 359 356 352 348 354 1 8 9 356 355 353 334 291 276 271 262 238 239
320 322 334 333 327 330 332 327 326 325 327 329 332 338 353 360 358 356 358 358 354 351 348 344 353 2 2 357 355 355 357 0 2 355 351 348 343 342 341 303 271 262 249
342 341 343 352 340 330 334 339 336 337 334 336 336 340 349 354 353 357 354 353 353 356 359 357 1 360 2 2 4 359 356 358 351 347 338 340 339 344 339 339 347 344 348
359 352 351 351 353 338 343 339 338 338 336 336 340 342 346 343 344 346 350 347 346 350 356 355 357 1 354 355 352 353 350 352 348 345 346 343 344 344 344 343 353 3 9
336 316 326 324 327 330 328 330 326 326 328 327 331 329 333 332 331 334 337 336 334 330 332 331 331 332 339 335 335 333 333 335 329 344 344 347 349 354 353 353 356 358 13
287 291 300 297 294 296 300 304 302 304 306 309 310 308 310 309 307 307 311 313 316 313 310 307 306 313 317 315 320 321 329 329 19 9 350 345 346 358 356 6 10 11 20